Time,TemperatureF,DewpointF,PressureIn,WindDirection,WindDirectionDegrees,WindSpeedMPH,WindSpeedGustMPH,Humidity,HourlyPrecipIn,Conditions,Clouds,dailyrainin,SoftwareType,DateUTC
2013-08-24 00:00:00,72.1,-33.9,30.02,ESE,105,0.0,2.0,1,0.00,,,0.00,Wunderground v.1.15,2013-08-24 05:00:00,
2013-08-24 00:09:00,72.9,-33.5,30.02,ESE,105,0.0,2.0,1,0.00,,,0.00,Wunderground v.1.15,2013-08-24 05:09:00,
2013-08-24 00:19:00,73.4,-33.2,30.03,East,98,0.0,2.0,1,0.00,,,0.00,Wunderground v.1.15,2013-08-24 05:19:00,
2013-08-24 00:29:00,73.2,-33.3,30.03,NE,44,0.0,2.0,1,0.00,,,0.00,Wunderground v.1.15,2013-08-24 05:29:00,
2013-08-24 00:34:00,73.2,-33.3,30.03,ENE,57,0.0,2.0,1,0.00,,,0.00,Wunderground v.1.15,2013-08-24 05:34:00,
2013-08-24 00:44:00,73.4,-33.2,30.03,NNE,31,0.0,2.0,1,0.00,,,0.00,Wunderground v.1.15,2013-08-24 05:44:00,
2013-08-24 00:54:00,73.4,-33.2,30.03,NE,35,0.0,2.0,1,0.00,,,0.00,Wunderground v.1.15,2013-08-24 05:54:00,
2013-08-24 01:04:00,73.3,-33.2,30.03,NE,44,0.0,2.0,1,0.00,,,0.00,Wunderground v.1.15,2013-08-24 06:04:00,
2013-08-24 01:10:00,73.4,-33.2,30.03,East,99,0.0,2.0,1,0.00,,,0.00,Wunderground v.1.15,2013-08-24 06:10:00,
2013-08-24 01:19:00,73.1,-33.3,30.04,NE,52,0.0,2.0,1,0.00,,,0.00,Wunderground v.1.15,2013-08-24 06:19:00,
2013-08-24 01:29:00,72.9,-33.5,30.04,East,95,0.0,2.0,1,0.00,,,0.00,Wunderground v.1.15,2013-08-24 06:29:00,
2013-08-24 01:39:00,72.3,-33.8,30.04,East,95,0.0,2.0,1,0.00,,,0.00,Wunderground v.1.15,2013-08-24 06:39:00,
2013-08-24 01:50:00,71.6,-34.2,30.04,East,95,0.0,2.0,1,0.00,,,0.00,Wunderground v.1.15,2013-08-24 06:50:00,
2013-08-24 01:59:00,71.2,-34.5,30.05,East,94,0.0,2.0,1,0.00,,,0.00,Wunderground v.1.15,2013-08-24 06:59:00,
2013-08-24 02:09:00,71.0,-34.6,30.05,East,94,0.0,2.0,1,0.00,,,0.00,Wunderground v.1.15,2013-08-24 07:09:00,
2013-08-24 02:19:00,71.1,-34.5,30.05,East,95,0.0,2.0,1,0.00,,,0.00,Wunderground v.1.15,2013-08-24 07:19:00,
2013-08-24 02:30:00,71.4,-34.4,30.05,East,95,0.0,2.0,1,0.00,,,0.00,Wunderground v.1.15,2013-08-24 07:30:00,
2013-08-24 02:39:00,71.5,-34.3,30.05,East,95,0.0,2.0,1,0.00,,,0.00,Wunderground v.1.15,2013-08-24 07:39:00,
2013-08-24 02:49:00,71.6,-34.2,30.05,ENE,75,0.0,2.0,1,0.00,,,0.00,Wunderground v.1.15,2013-08-24 07:49:00,
2013-08-24 02:59:00,71.7,-34.2,30.05,NNE,30,0.0,2.0,1,0.00,,,0.00,Wunderground v.1.15,2013-08-24 07:59:00,
2013-08-24 03:09:00,71.8,-34.1,30.06,NE,40,0.0,2.0,1,0.00,,,0.00,Wunderground v.1.15,2013-08-24 08:09:00,
2013-08-24 03:19:00,71.6,-34.2,30.06,NNE,30,0.0,2.0,1,0.00,,,0.00,Wunderground v.1.15,2013-08-24 08:19:00,
2013-08-24 03:29:00,71.5,-34.3,30.06,NNE,14,0.0,2.0,1,0.00,,,0.00,Wunderground v.1.15,2013-08-24 08:29:00,
2013-08-24 03:40:00,71.4,-34.4,30.06,NNE,15,0.0,2.0,1,0.00,,,0.00,Wunderground v.1.15,2013-08-24 08:40:00,
2013-08-24 03:49:00,71.2,-34.5,30.06,NE,35,0.0,2.0,1,0.00,,,0.00,Wunderground v.1.15,2013-08-24 08:49:00,
2013-08-24 03:59:00,71.2,-34.5,30.06,NE,41,0.0,2.0,1,0.00,,,0.00,Wunderground v.1.15,2013-08-24 08:59:00,
2013-08-24 04:09:00,71.4,-34.4,30.07,North,352,0.0,2.0,1,0.00,,,0.00,Wunderground v.1.15,2013-08-24 09:09:00,
2013-08-24 04:20:00,71.3,-34.4,30.07,NNE,15,0.0,2.0,1,0.00,,,0.00,Wunderground v.1.15,2013-08-24 09:20:00,
2013-08-24 04:29:00,71.2,-34.5,30.07,North,6,0.0,2.0,1,0.00,,,0.00,Wunderground v.1.15,2013-08-24 09:29:00,
2013-08-24 04:39:00,71.1,-34.5,30.07,NNE,30,0.0,2.0,1,0.00,,,0.00,Wunderground v.1.15,2013-08-24 09:39:00,
2013-08-24 04:49:00,71.0,-34.6,30.07,NNE,16,0.0,2.0,1,0.00,,,0.00,Wunderground v.1.15,2013-08-24 09:49:00,
2013-08-24 05:00:00,70.8,-34.7,30.08,NNE,15,0.0,2.0,1,0.00,,,0.00,Wunderground v.1.15,2013-08-24 10:00:00,
2013-08-24 05:09:00,70.7,-34.8,30.08,NNE,16,0.0,2.0,1,0.00,,,0.00,Wunderground v.1.15,2013-08-24 10:09:00,
2013-08-24 05:19:00,70.4,-35.0,30.08,NNE,16,0.0,2.0,1,0.00,,,0.00,Wunderground v.1.15,2013-08-24 10:19:00,
2013-08-24 05:29:00,70.3,-35.0,30.08,NNE,16,0.0,2.0,1,0.00,,,0.00,Wunderground v.1.15,2013-08-24 10:29:00,
2013-08-24 05:39:00,70.5,-34.9,30.08,NNE,16,0.0,2.0,1,0.00,,,0.00,Wunderground v.1.15,2013-08-24 10:39:00,
2013-08-24 05:49:00,70.3,-35.0,30.08,NNE,16,0.0,2.0,1,0.00,,,0.00,Wunderground v.1.15,2013-08-24 10:49:00,
2013-08-24 05:59:00,69.9,-35.3,30.08,NNE,16,0.0,2.0,1,0.00,,,0.00,Wunderground v.1.15,2013-08-24 10:59:00,
2013-08-24 06:10:00,69.4,-35.6,30.08,NNE,16,0.0,2.0,1,0.00,,,0.00,Wunderground v.1.15,2013-08-24 11:10:00,
2013-08-24 06:19:00,69.3,-35.6,30.09,NNE,16,0.0,2.0,1,0.00,,,0.00,Wunderground v.1.15,2013-08-24 11:19:00,
2013-08-24 06:24:00,69.2,-35.7,30.09,NNE,16,0.0,2.0,1,0.00,,,0.00,Wunderground v.1.15,2013-08-24 11:24:00,
2013-08-24 06:34:00,69.6,-35.5,30.09,NNE,18,0.0,2.0,1,0.00,,,0.00,Wunderground v.1.15,2013-08-24 11:34:00,
2013-08-24 06:44:00,70.1,-35.2,30.09,NNE,27,0.0,2.0,1,0.00,,,0.00,Wunderground v.1.15,2013-08-24 11:44:00,
2013-08-24 06:55:00,70.3,-35.0,30.10,NNE,28,0.0,2.0,1,0.00,,,0.00,Wunderground v.1.15,2013-08-24 11:55:00,
2013-08-24 07:04:00,71.0,-34.6,30.10,NE,45,0.0,2.0,1,0.00,,,0.00,Wunderground v.1.15,2013-08-24 12:04:00,
2013-08-24 07:14:00,71.3,-34.4,30.11,NE,41,0.0,2.0,1,0.00,,,0.00,Wunderground v.1.15,2013-08-24 12:14:00,
2013-08-24 07:24:00,71.8,-34.1,30.11,NE,42,0.0,2.0,1,0.00,,,0.00,Wunderground v.1.15,2013-08-24 12:24:00,
2013-08-24 07:35:00,72.8,-33.5,30.11,NE,42,0.0,2.0,1,0.00,,,0.00,Wunderground v.1.15,2013-08-24 12:35:00,
2013-08-24 07:44:00,73.7,-33.0,30.12,NE,43,0.0,2.0,1,0.00,,,0.00,Wunderground v.1.15,2013-08-24 12:44:00,
2013-08-24 07:54:00,74.5,-32.5,30.12,NE,39,0.0,2.0,1,0.00,,,0.00,Wunderground v.1.15,2013-08-24 12:54:00,
2013-08-24 08:04:00,75.4,-31.9,30.12,NNE,18,0.0,2.0,1,0.00,,,0.00,Wunderground v.1.15,2013-08-24 13:04:00,
2013-08-24 08:14:00,76.7,-31.2,30.12,NNE,13,0.0,2.0,1,0.00,,,0.00,Wunderground v.1.15,2013-08-24 13:14:00,
2013-08-24 08:24:00,77.6,-30.6,30.12,ESE,117,0.0,2.0,1,0.00,,,0.00,Wunderground v.1.15,2013-08-24 13:24:00,
2013-08-24 08:34:00,77.9,-30.4,30.12,SE,127,0.0,2.0,1,0.00,,,0.00,Wunderground v.1.15,2013-08-24 13:34:00,
2013-08-24 08:45:00,78.6,-30.0,30.13,SE,127,0.0,2.0,1,0.00,,,0.00,Wunderground v.1.15,2013-08-24 13:45:00,
2013-08-24 08:54:00,79.1,-29.7,30.13,East,86,0.0,2.0,1,0.00,,,0.00,Wunderground v.1.15,2013-08-24 13:54:00,
2013-08-24 09:04:00,79.6,-29.4,30.13,ESE,112,0.0,2.0,1,0.00,,,0.00,Wunderground v.1.15,2013-08-24 14:04:00,
2013-08-24 09:14:00,80.1,-29.1,30.13,NE,35,0.0,3.0,1,0.00,,,0.00,Wunderground v.1.15,2013-08-24 14:14:00,
2013-08-24 09:25:00,80.4,-28.9,30.13,ESE,103,1.0,3.0,1,0.00,,,0.00,Wunderground v.1.15,2013-08-24 14:25:00,
2013-08-24 09:34:00,81.2,-28.5,30.13,NNE,16,1.0,2.0,1,0.00,,,0.00,Wunderground v.1.15,2013-08-24 14:34:00,
2013-08-24 09:44:00,81.4,-28.3,30.13,East,85,1.0,2.0,1,0.00,,,0.00,Wunderground v.1.15,2013-08-24 14:44:00,
2013-08-24 09:54:00,81.7,-28.2,30.13,ESE,113,1.0,5.0,1,0.00,,,0.00,Wunderground v.1.15,2013-08-24 14:54:00,
2013-08-24 10:05:00,83.2,-27.3,30.13,East,81,1.0,2.0,1,0.00,,,0.00,Wunderground v.1.15,2013-08-24 15:05:00,
2013-08-24 10:14:00,83.2,-27.3,30.13,SE,136,1.0,2.0,1,0.00,,,0.00,Wunderground v.1.15,2013-08-24 15:14:00,
2013-08-24 10:24:00,84.4,-26.5,30.13,NE,47,1.0,2.0,1,0.00,,,0.00,Wunderground v.1.15,2013-08-24 15:24:00,
2013-08-24 10:34:00,84.8,24.4,30.13,NNW,348,1.0,2.0,11,0.00,,,0.00,Wunderground v.1.15,2013-08-24 15:34:00,
2013-08-24 10:44:00,85.1,35.4,30.13,ESE,121,2.0,2.0,17,0.00,,,0.00,Wunderground v.1.15,2013-08-24 15:44:00,
2013-08-24 10:54:00,85.6,37.2,30.13,North,5,2.0,6.0,18,0.00,,,0.00,Wunderground v.1.15,2013-08-24 15:54:00,
2013-08-24 11:04:00,86.4,43.1,30.13,ESE,104,1.0,2.0,22,0.00,,,0.00,Wunderground v.1.15,2013-08-24 16:04:00,
2013-08-24 11:15:00,86.8,45.7,30.13,NNE,20,1.0,2.0,24,0.00,,,0.00,Wunderground v.1.15,2013-08-24 16:15:00,
2013-08-24 11:24:00,87.0,51.8,30.13,NE,34,1.0,7.0,30,0.00,,,0.00,Wunderground v.1.15,2013-08-24 16:24:00,
2013-08-24 11:34:00,86.7,49.7,30.13,NNE,22,2.0,4.0,28,0.00,,,0.00,Wunderground v.1.15,2013-08-24 16:34:00,
2013-08-24 11:44:00,87.4,53.1,30.12,NNE,32,2.0,3.0,31,0.00,,,0.00,Wunderground v.1.15,2013-08-24 16:44:00,
2013-08-24 11:55:00,87.8,56.7,30.13,North,5,2.0,8.0,35,0.00,,,0.00,Wunderground v.1.15,2013-08-24 16:55:00,
2013-08-24 12:04:00,88.0,59.9,30.12,NNE,29,2.0,3.0,39,0.00,,,0.00,Wunderground v.1.15,2013-08-24 17:04:00,
2013-08-24 12:14:00,87.4,55.6,30.12,NNE,30,1.0,3.0,34,0.00,,,0.00,Wunderground v.1.15,2013-08-24 17:14:00,
2013-08-24 12:24:00,87.6,61.0,30.12,North,354,1.0,2.0,41,0.00,,,0.00,Wunderground v.1.15,2013-08-24 17:24:00,
2013-08-24 12:35:00,87.4,60.8,30.11,NNE,22,2.0,7.0,41,0.00,,,0.00,Wunderground v.1.15,2013-08-24 17:35:00,
2013-08-24 12:44:00,88.4,64.4,30.11,NNE,16,1.0,3.0,45,0.00,,,0.00,Wunderground v.1.15,2013-08-24 17:44:00,
2013-08-24 12:54:00,88.0,62.0,30.11,NNE,30,3.0,3.0,42,0.00,,,0.00,Wunderground v.1.15,2013-08-24 17:54:00,
2013-08-24 13:04:00,88.8,65.4,30.10,ESE,119,1.0,2.0,46,0.00,,,0.00,Wunderground v.1.15,2013-08-24 18:04:00,
2013-08-24 13:14:00,88.4,63.1,30.10,ESE,109,1.0,2.0,43,0.00,,,0.00,Wunderground v.1.15,2013-08-24 18:14:00,
2013-08-24 13:24:00,88.8,66.6,30.10,NNW,346,2.0,2.0,48,0.00,,,0.00,Wunderground v.1.15,2013-08-24 18:24:00,
2013-08-24 13:34:00,89.0,66.2,30.10,ESE,120,1.0,2.0,47,0.00,,,0.00,Wunderground v.1.15,2013-08-24 18:34:00,
2013-08-24 13:44:00,89.9,67.6,30.10,East,95,1.0,2.0,48,0.00,,,0.00,Wunderground v.1.15,2013-08-24 18:44:00,
2013-08-24 13:49:00,90.2,67.2,30.10,NE,38,0.0,2.0,47,0.00,,,0.00,Wunderground v.1.15,2013-08-24 18:49:00,
2013-08-24 13:59:00,89.7,67.4,30.10,NNW,346,2.0,4.0,48,0.00,,,0.00,Wunderground v.1.15,2013-08-24 18:59:00,
2013-08-24 14:09:00,89.5,67.8,30.09,NNE,23,2.0,2.0,49,0.00,,,0.00,Wunderground v.1.15,2013-08-24 19:09:00,
2013-08-24 14:19:00,90.0,68.3,30.09,NE,53,1.0,1.0,49,0.00,,,0.00,Wunderground v.1.15,2013-08-24 19:19:00,
2013-08-24 14:25:00,90.0,68.3,30.09,NNE,30,1.0,2.0,49,0.00,,,0.00,Wunderground v.1.15,2013-08-24 19:25:00,
2013-08-24 14:34:00,90.1,67.8,30.09,East,90,1.0,2.0,48,0.00,,,0.00,Wunderground v.1.15,2013-08-24 19:34:00,
2013-08-24 14:44:00,90.7,69.5,30.09,NNW,343,1.0,5.0,50,0.00,,,0.00,Wunderground v.1.15,2013-08-24 19:44:00,
2013-08-24 14:54:00,90.5,68.7,30.08,North,8,2.0,6.0,49,0.00,,,0.00,Wunderground v.1.15,2013-08-24 19:54:00,
2013-08-24 15:05:00,90.5,68.7,30.08,NE,50,1.0,2.0,49,0.00,,,0.00,Wunderground v.1.15,2013-08-24 20:05:00,
2013-08-24 15:14:00,90.5,68.7,30.08,NNE,23,2.0,3.0,49,0.00,,,0.00,Wunderground v.1.15,2013-08-24 20:14:00,
2013-08-24 15:24:00,90.7,68.9,30.08,East,80,1.0,3.0,49,0.00,,,0.00,Wunderground v.1.15,2013-08-24 20:24:00,
2013-08-24 15:34:00,90.6,69.4,30.08,North,358,2.0,3.0,50,0.00,,,0.00,Wunderground v.1.15,2013-08-24 20:34:00,
2013-08-24 15:45:00,90.9,69.1,30.08,ESE,118,1.0,2.0,49,0.00,,,0.00,Wunderground v.1.15,2013-08-24 20:45:00,
2013-08-24 15:54:00,90.6,68.8,30.08,East,91,2.0,4.0,49,0.00,,,0.00,Wunderground v.1.15,2013-08-24 20:54:00,
2013-08-24 16:04:00,90.1,68.4,30.08,NNE,20,2.0,2.0,49,0.00,,,0.00,Wunderground v.1.15,2013-08-24 21:04:00,
2013-08-24 16:14:00,90.4,68.0,30.08,NNW,336,1.0,2.0,48,0.00,,,0.00,Wunderground v.1.15,2013-08-24 21:14:00,
2013-08-24 16:19:00,90.5,67.5,30.08,NNE,23,2.0,2.0,47,0.00,,,0.00,Wunderground v.1.15,2013-08-24 21:19:00,
2013-08-24 16:29:00,89.9,67.6,30.08,ENE,70,2.0,2.0,48,0.00,,,0.00,Wunderground v.1.15,2013-08-24 21:29:00,
2013-08-24 16:39:00,90.0,67.7,30.07,NE,45,1.0,1.0,48,0.00,,,0.00,Wunderground v.1.15,2013-08-24 21:39:00,
2013-08-24 16:49:00,90.3,68.5,30.07,ESE,115,1.0,1.0,49,0.00,,,0.00,Wunderground v.1.15,2013-08-24 21:49:00,
2013-08-24 16:55:00,90.3,68.5,30.07,East,90,1.0,2.0,49,0.00,,,0.00,Wunderground v.1.15,2013-08-24 21:55:00,
2013-08-24 17:04:00,89.2,67.5,30.07,NNE,13,2.0,7.0,49,0.00,,,0.00,Wunderground v.1.15,2013-08-24 22:04:00,
2013-08-24 17:14:00,88.6,67.6,30.07,NNE,13,3.0,3.0,50,0.00,,,0.00,Wunderground v.1.15,2013-08-24 22:14:00,
2013-08-24 17:24:00,88.8,67.2,30.07,ESE,109,1.0,2.0,49,0.00,,,0.00,Wunderground v.1.15,2013-08-24 22:24:00,
2013-08-24 17:35:00,88.5,66.9,30.07,NNE,13,1.0,2.0,49,0.00,,,0.00,Wunderground v.1.15,2013-08-24 22:35:00,
2013-08-24 17:44:00,87.9,65.8,30.07,NNE,26,2.0,2.0,48,0.00,,,0.00,Wunderground v.1.15,2013-08-24 22:44:00,
2013-08-24 17:54:00,87.7,66.2,30.07,NE,40,1.0,2.0,49,0.00,,,0.00,Wunderground v.1.15,2013-08-24 22:54:00,
2013-08-24 18:04:00,87.1,66.2,30.06,NE,45,1.0,2.0,50,0.00,,,0.00,Wunderground v.1.15,2013-08-24 23:04:00,
2013-08-24 18:15:00,86.5,65.7,30.06,NE,44,1.0,2.0,50,0.00,,,0.00,Wunderground v.1.15,2013-08-24 23:15:00,
2013-08-24 18:24:00,85.9,65.1,30.06,SE,145,0.0,2.0,50,0.00,,,0.00,Wunderground v.1.15,2013-08-24 23:24:00,
2013-08-24 18:34:00,85.3,65.1,30.06,NE,43,0.0,2.0,51,0.00,,,0.00,Wunderground v.1.15,2013-08-24 23:34:00,
2013-08-24 18:44:00,84.7,64.6,30.06,North,4,0.0,2.0,51,0.00,,,0.00,Wunderground v.1.15,2013-08-24 23:44:00,
2013-08-24 18:55:00,83.9,63.8,30.06,North,11,0.0,2.0,51,0.00,,,0.00,Wunderground v.1.15,2013-08-24 23:55:00,
2013-08-24 19:04:00,83.1,62.0,30.06,East,94,0.0,2.0,49,0.00,,,0.00,Wunderground v.1.15,2013-08-25 00:04:00,
2013-08-24 19:14:00,82.3,60.6,30.07,ESE,104,0.0,2.0,48,0.00,,,0.00,Wunderground v.1.15,2013-08-25 00:14:00,
2013-08-24 19:24:00,80.9,55.7,30.06,ESE,105,0.0,2.0,42,0.00,,,0.00,Wunderground v.1.15,2013-08-25 00:24:00,
2013-08-24 19:35:00,79.0,43.1,30.07,ESE,104,0.0,2.0,28,0.00,,,0.00,Wunderground v.1.15,2013-08-25 00:35:00,
2013-08-24 19:44:00,77.4,31.9,30.07,ESE,105,0.0,2.0,19,0.00,,,0.00,Wunderground v.1.15,2013-08-25 00:44:00,
2013-08-24 19:54:00,75.9,-31.6,30.07,ESE,105,0.0,2.0,1,0.00,,,0.00,Wunderground v.1.15,2013-08-25 00:54:00,
2013-08-24 20:04:00,74.8,-32.3,30.08,ESE,105,0.0,2.0,1,0.00,,,0.00,Wunderground v.1.15,2013-08-25 01:04:00,
2013-08-24 20:15:00,74.0,-32.8,30.08,ESE,104,0.0,2.0,1,0.00,,,0.00,Wunderground v.1.15,2013-08-25 01:15:00,
2013-08-24 20:24:00,73.1,-33.3,30.08,ESE,104,0.0,2.0,1,0.00,,,0.00,Wunderground v.1.15,2013-08-25 01:24:00,
2013-08-24 20:34:00,72.5,-33.7,30.09,ESE,104,0.0,2.0,1,0.00,,,0.00,Wunderground v.1.15,2013-08-25 01:34:00,
2013-08-24 20:44:00,72.1,-33.9,30.09,ESE,104,0.0,2.0,1,0.00,,,0.00,Wunderground v.1.15,2013-08-25 01:44:00,
2013-08-24 20:54:00,71.7,-34.2,30.10,ESE,104,0.0,2.0,1,0.00,,,0.00,Wunderground v.1.15,2013-08-25 01:54:00,
2013-08-24 21:04:00,71.3,-34.4,30.10,ESE,104,0.0,2.0,1,0.00,,,0.00,Wunderground v.1.15,2013-08-25 02:04:00,
2013-08-24 21:14:00,72.0,-34.0,30.10,ESE,104,0.0,2.0,1,0.00,,,0.00,Wunderground v.1.15,2013-08-25 02:14:00,
2013-08-24 21:24:00,71.9,-34.1,30.11,ESE,104,0.0,2.0,1,0.00,,,0.00,Wunderground v.1.15,2013-08-25 02:24:00,
2013-08-24 21:30:00,71.9,-34.1,30.11,ESE,104,0.0,2.0,1,0.00,,,0.00,Wunderground v.1.15,2013-08-25 02:30:00,
2013-08-24 21:39:00,71.3,-34.4,30.11,ESE,104,0.0,2.0,1,0.00,,,0.00,Wunderground v.1.15,2013-08-25 02:39:00,
2013-08-24 21:49:00,71.0,-34.6,30.12,ESE,104,0.0,2.0,1,0.00,,,0.00,Wunderground v.1.15,2013-08-25 02:49:00,
2013-08-24 21:59:00,70.9,-34.7,30.12,ESE,104,0.0,2.0,1,0.00,,,0.00,Wunderground v.1.15,2013-08-25 02:59:00,
2013-08-24 22:10:00,70.3,-35.0,30.12,ESE,104,0.0,2.0,1,0.00,,,0.00,Wunderground v.1.15,2013-08-25 03:10:00,
2013-08-24 22:19:00,71.0,-34.6,30.12,ESE,104,0.0,2.0,1,0.00,,,0.00,Wunderground v.1.15,2013-08-25 03:19:00,
2013-08-24 22:29:00,72.2,-33.9,30.12,NE,53,0.0,2.0,1,0.00,,,0.00,Wunderground v.1.15,2013-08-25 03:29:00,
2013-08-24 22:39:00,72.5,-33.7,30.12,NE,56,0.0,2.0,1,0.00,,,0.00,Wunderground v.1.15,2013-08-25 03:39:00,
2013-08-24 22:50:00,73.1,-20.4,30.13,NE,48,0.0,2.0,2,0.00,,,0.00,Wunderground v.1.15,2013-08-25 03:50:00,
2013-08-24 22:59:00,72.7,-12.8,30.13,NE,45,0.0,2.0,3,0.00,,,0.00,Wunderground v.1.15,2013-08-25 03:59:00,
2013-08-24 23:04:00,73.0,-20.5,30.13,East,91,0.0,2.0,2,0.00,,,0.00,Wunderground v.1.15,2013-08-25 04:04:00,
2013-08-24 23:09:00,73.0,1.8,30.13,East,91,0.0,2.0,6,0.00,,,0.00,Wunderground v.1.15,2013-08-25 04:09:00,
2013-08-24 23:14:00,72.8,5.0,30.13,East,91,0.0,2.0,7,0.00,,,0.00,Wunderground v.1.15,2013-08-25 04:14:00,
2013-08-24 23:19:00,72.7,-6.9,30.13,East,99,0.0,2.0,4,0.00,,,0.00,Wunderground v.1.15,2013-08-25 04:19:00,
2013-08-24 23:24:00,72.8,1.7,30.13,East,98,0.0,2.0,6,0.00,,,0.00,Wunderground v.1.15,2013-08-25 04:24:00,
2013-08-24 23:29:00,72.8,8.0,30.13,ENE,66,0.0,2.0,8,0.00,,,0.00,Wunderground v.1.15,2013-08-25 04:29:00,
2013-08-24 23:39:00,73.0,13.1,30.13,NE,45,0.0,2.0,10,0.00,,,0.00,Wunderground v.1.15,2013-08-25 04:39:00,
2013-08-24 23:49:00,73.4,15.6,30.13,NNE,25,0.0,2.0,11,0.00,,,0.00,Wunderground v.1.15,2013-08-25 04:49:00,
2013-08-24 23:59:00,73.4,13.5,30.13,NE,37,0.0,2.0,10,0.00,,,0.00,Wunderground v.1.15,2013-08-25 04:59:00,